Regional Weather Roundup
Issued by NWS

Home | Current Version | Previous Version | Text Only | Print | Product List | Glossary Off
Versions: 1 2 3 4 5 6 7 8 9 10 11 12 13 14 15 16 17 18 19 20 21 22 23 24 25 26 27 28 29 30 31 32 33 34 35 36 37 38 39 40 41 42 43 44 45 46 47 48 49 50

000
ASUS43 KLOT 291806
RWRIL

ILLINOIS REGIONAL WEATHER ROUNDUP
NATIONAL WEATHER SERVICE CHICAGO/ROMEOVILLE IL
100 PM CDT TUE JUL 29 2014

NOTE: "FAIR" INDICATES FEW OR NO CLOUDS BELOW 12,000 FEET WITH NO
SIGNIFICANT WEATHER AND/OR OBSTRUCTIONS TO VISIBILITY.

* THESE STATIONS ARE NOT UNDER NWS QUALITY CONTROL. THEY ALSO MAY NOT
  REPORT WEATHER SUCH AS PRECIPITATION OR FOG.

ILZ001-002-007-009-015-016-024-291900-
NORTHWEST ILLINOIS

CITY           SKY/WX    TMP DP  RH WIND       PRES   REMARKS
MOLINE         NOT AVBL
STERLING*      MOSUNNY   79  59  50 NW10G17   30.07F HX  80
SAVANNA*       SUNNY     80  53  39 NW10G16   30.07S HX  80
$$

ILZ003-004-008-010-011-017-018-291900-
NORTH CENTRAL ILLINOIS

CITY           SKY/WX    TMP DP  RH WIND       PRES   REMARKS
ROCKFORD       MOSUNNY   78  57  48 N9        30.06F
6HR MIN TEMP:  58; 6HR MAX TEMP:  78;

FREEPORT*      MOSUNNY   78  61  55 W12       30.08F
ROCHELLE*        N/A    N/A N/A N/A MISG      30.06
DE KALB*       SUNNY     74  56  52 NW10G16   30.06S
PERU*          MOSUNNY   76  56  49 NW10G18   30.07F
$$

ILZ005-006-012>014-019>023-291900-
NORTHEAST ILLINOIS

CITY           SKY/WX    TMP DP  RH WIND       PRES   REMARKS
CHICAGO-OHARE  PTSUNNY   78  51  38 NW15G22   30.02F
6HR MIN TEMP:  62; 6HR MAX TEMP:  79;

CHICAGO-MIDWAY MOSUNNY   79  53  40 N12       30.02F
6HR MIN TEMP:  62; 6HR MAX TEMP:  80;

AURORA         SUNNY     78  55  44 NW9       30.04F
6HR MIN TEMP:  55; 6HR MAX TEMP:  78;

LANSING*       PTSUNNY   76  52  43 NW8G16    30.02F
JOLIET*        SUNNY     77  53  42 W7        30.04F
WAUKEGAN       MOSUNNY   76  54  46 VRB5      30.01F
6HR MIN TEMP:  61; 6HR MAX TEMP:  76;

DUPAGE AIRPORT SUNNY     78  54  43 N15G23    30.03F
6HR MIN TEMP:  60; 6HR MAX TEMP:  78;

KANKAKEE*      PTSUNNY   75  58  54 W9G17     30.05F
WHEELING       MOSUNNY   78  53  41 NW10G25   30.03F
6HR MIN TEMP:  63; 6HR MAX TEMP:  80;

MORRIS*        MOSUNNY   78  58  51 NW13G21   30.05S
ROMEOVILLE*    MOSUNNY   76  53  45 W14       30.04S
NORTHERLY ISL    N/A     70  59  68 NE5         N/A
$$

LMZ740>746-291900-
SOUTHERN LAKE MICHIGAN

STATION/POSITION SKY/WX   TEMP    WIND        PRES    VSBY  WAVE
                          AIR SEA DIR/SP/G                  HT/PER
                          (F)     (DEG/KT/KT) (MB)    (MI)  (FT/S)
SOUTHERN BUOY              61 61  300/  6/  6 1017.0F         1
WAUKEGAN HARBOR            70     120/  7/  8   N/A
HARRISON CRIB              67      40/  9/ 10   N/A
BURNHAM HARBOR             69      50/  5/ 10   N/A
CALUMET HARBOR             67      50/  9/ 10 1015.6S
MICHIGAN CITY              67     330/ 10/ 12   N/A
MICHIGAN CITY 6N           65 68  360/  8/ 10   N/A           1/ 2
ST. JOSEPH                 63 67  300/  6/ 10   N/A           2/ 3
$$

ILZ025>027-034>036-040-047-049-050-058-095>099-291900-
WEST-CENTRAL ILLINOIS

CITY           SKY/WX    TMP DP  RH WIND       PRES   REMARKS
QUINCY         SUNNY     76  54  46 NW9       30.15S
GALESBURG*     MOSUNNY   78  60  52 W9        30.12S HX  80
MACOMB*        MOSUNNY   74  58  56 NW12      30.15S
JACKSONVILLE*  MOSUNNY   76  57  51 W6        30.15S
PITTSFIELD*    MOSUNNY   76  56  50 NW9       30.15F
$$

ILZ028>032-037-038-041>044-048-051>054-059>061-291900-
CENTRAL ILLINOIS

CITY           SKY/WX    TMP DP  RH WIND       PRES   REMARKS
PONTIAC        SUNNY     77  57  50 NW13G18   30.07S
DECATUR        MOSUNNY   75  55  49 W12       30.11F
PEORIA         SUNNY     79  55  43 NW10      30.10F
6HR MIN TEMP:  60; 6HR MAX TEMP:  79;

LACON*         MOSUNNY   77  54  44 NW7       30.08S
LINCOLN*       SUNNY     77  55  46 NW6       30.08F
SPRINGFIELD    MOSUNNY   77  55  46 W8        30.12F
6HR MIN TEMP:  54; 6HR MAX TEMP:  77;

TAYLORVILLE    MOSUNNY   73  54  49 W10       30.12S
$$

ILZ033-039-045-046-055>057-062-063-291900-
EAST-CENTRAL ILLINOIS

CITY           SKY/WX    TMP DP  RH WIND       PRES   REMARKS
CHAMPAIGN      PTSUNNY   73  57  57 W13       30.10S
DANVILLE*      MOSUNNY   73  59  61 NW7       30.05S HAZE
RANTOUL*       MOSUNNY   77  55  47 NW8G17    30.09S
MATTOON        MOSUNNY   75  55  49 NW10      30.10S
PARIS*         PTSUNNY   75  62  62 NW8       30.10S
$$

ILZ079-100>102-291900-
SOUTHWEST ILLINOIS

CITY           SKY/WX    TMP DP  RH WIND       PRES   REMARKS
ALTON          PTSUNNY   75  59  57 W12       30.14F
BELLEVILLE     MOSUNNY   77  55  46 NW9       30.13F
CAHOKIA*       PTSUNNY   80  52  37 NW8       30.14F HX  80
SPARTA*        PTSUNNY   72  52  49 N3        30.15F
$$

ILZ064>066-069>071-074>076-080>082-084>086-088>090-092>094-291900-
SOUTH-CENTRAL ILLINOIS

CITY           SKY/WX    TMP DP  RH WIND       PRES   REMARKS
CARBONDALE     PTSUNNY   78  51  38 NW7       30.14F
6HR MIN TEMP:  56; 6HR MAX TEMP:  78;

CAIRO*         PTSUNNY   77  54  44 N3        30.15S
EFFINGHAM*     MOSUNNY   77  50  39 NW9       30.11F
MARION         MOSUNNY   77  50  38 N9        30.15F
MT. VERNON     PTSUNNY   75  52  43 CALM      30.14S
CENTRALIA*     MOSUNNY   82  50  33 NW10      30.13S HX  80
SALEM*         MOSUNNY  N/A N/A N/A W7        30.13S
METROPOLIS*    PTSUNNY   76  46  35 CALM      30.13F
$$

ILZ067-068-072-073-078-083-087-091-291900-
SOUTHEAST ILLINOIS

CITY           SKY/WX    TMP DP  RH WIND       PRES   REMARKS
FLORA*         SUNNY     76  54  46 NW12      30.12S
FAIRFIELD*     MOSUNNY   75  57  53 W6        30.12S
HARRISBURG*    SUNNY     75  55  49 N7        30.14F
ROBINSON*      PTSUNNY   77  58  53 NW12      30.11S
CARMI*         SUNNY     79  61  53 NW7       30.12F HX  80
$$

ABBREVIATIONS USED IN REMARKS
   TC - TEMPERATURE IN CELSIUS
  WCI - WIND CHILL INDEX
   HX - HEAT INDEX
  VSB - VISIBILITY
$$




USA.gov is the U.S. government's official web portal to all federal, state and local government web resources and services.